CZ-4 DEB, 26127

Orbit data source: Space-Track

CZ-4 DEB, 26127 is space debris in SSO originally from a launch on Thu, 14 Oct 1999 UTC launched from the Taiyaun Space Center, China (TSC). Debris objects in space refer to the collection of defunct objects orbiting the Earth. Examples of debris include non-operational satellites, rocket bodies, and fragments generated from explosions, collisions, or faulty payload assembly.

Loading next visibility...
Identifier
26127, 1999-057P
Orbit
SSO
Country
Flag of CNCN / PRC
Related business
Manufacturer
Unknown
Mission
Spacecraft
Bus & Motor
Unknown
Mass
Unknown
Launch date (UTC)
1999-10-14 (26 years ago)
Launch vehicle
Unknown
Launch site
Taiyaun Space Center, China (TSC)
Object type
Payload
Rocket body
Debris
Shape & HBR
Unknown shape, 0.1 m
Radar Cross Section
Small (<0.1 m²)

Expand to show TLE details & history
Last TLE update: 18 hours ago

TLE from 18 hours ago
0 CZ-4 DEB
1 26127U 99057P   25349.37497359  .00009384  00000-0  10166-2 0  9998
2 26127  98.4318 146.4457 0060995 330.7541  91.4678 14.87090643357334
Epoch: 2025-12-15T08:59Z
TLE epoch observation values (Epoch: 2025-12-15T08:59:57.718Z)
Latitude
61.83004°
Longitude
-88.7992°
Altitude
618.961 km
Speed
7.555 km/s
True Right ascension
08h 41m 51s
True Declination
61° 41' 02"
Sunlit
Object was in full shadow at epoch
Visualization orbit readout
Latitude
Unknown
Longitude
Unknown
Altitude
Unknown
Speed
Unknown
Apparent Right ascension
Unknown
Apparent Declination
Unknown
Sunlit
N/A
Visualization observer readout
Local Sidereal Time
01:20:05
Azimuth
Unknown
Elevation
Unknown
Doppler factor
Unknown
Orbital elements
Apogee altitude
646.675 km
Perigee altitude
561.499 km
Semi-major axis
6,982.224 km
Eccentricity
0.0061
Inclination
98.4318°
RAAN
146.4457°
Arg. of periapsis
330.7541°
True anomaly
92.16637°
Mean anomaly
91.4678°
Eccentric anomaly
91.8171°
Mean motion
3.72008 °/min
Orbital period
96.77 mins
BSTAR
0.0010166
Loading maneuver chart data...
Computing Atmospheric mass density...
Loading historical data...
Loading historical data...
Loading historical data...
Loading historical data...
Loading historical data...
Loading historical data...
Loading historical data...

Documentation

Showing up to 5 results
|